Location: Finkenwalde
(53.3770°N, 14.6418°E)
Time: 04:20:47
(UTC+00:00)

Meteor 1-27 - Pass Details

Date: 05 February 2023
Orbit: 837 x 893 km, 81.3° (Epoch: 24 March)

Event Time Altitude Azimuth Distance (km) Brightness Sun altitude
Rises 16:54:28 0° 348° (NNW) 3,504 7.4 -9.6°
Reaches altitude 10° 16:57:00 10° 352° (N) 2,555 6.7 -10.0°
Maximum altitude 17:02:43 57° 71° (ENE) 1,026 4.3 -10.8°
Drops below altitude 10° 17:08:20 10° 150° (SSE) 2,501 6.5 -11.6°
Sets 17:10:47 0° 155° (SSE) 3,425 7.2 -12.0°
